User: anonymous   Login
Location: Bishop�s Knoyle
(51.0728°N, 2.1714°W)
Time: 04:29:37
(UTC+00:00)
Language:

Cosmos 1025 Rocket - Orbit

View from above orbital plane
View from above orbital plane
View from above satellite
View from above satellite

Ground track
Ground track

The orbit data is extracted from the following two-line orbital elements,

1 10974U 78067B   20336.49483106  .00000171  00000-0  16096-4 0  9993
2 10974  82.4843  52.6319 0018817 114.7695 245.5483 14.87372242295339
Epoch (UTC): 01 December 2020 11:52:33
Eccentricity: 0.0018817
inclination: 82.4843°
perigee height: 593 km
apogee height: 619 km
right ascension of ascending node: 52.6319°
argument of perigee: 114.7695°
revolutions per day: 14.87372242
mean anomaly at epoch: 245.5483°
orbit number at epoch: 29533

The dashed part of the orbit path shows where the satellite is in the earth's shadow,  

DLR